[Date Prev][Date Next][Thread Prev][Thread Next] - [Date Index][Thread Index][Author Index]

2 Line ISS Keps 1-31



ISS
1 25544U 98067A   03031.19703558  .00026088  00000-0  32175-3 0  6425
2 25544  51.6365 348.3339 0005700  96.7769   5.6694 15.59983769239632


----
Via the sarex mailing list at AMSAT.ORG courtesy of AMSAT-NA.
To unsubscribe, send "unsubscribe sarex" to Majordomo@amsat.org



AMSAT Top AMSAT Home